| time (UTC) | temp C | wind direction | speed KPH | gust KPH | rain 1hr cm | rain 24hr cm | rain mn cm | humidity % | barometer mb |
| 20260507210354 | 24 | 0.0 | 0.0 | 0.00 | 0.00 | 0.00 | 85 | 1006.9 | |
| 20260507205400 | 24 | 0.0 | 0.0 | 0.00 | 0.00 | 0.00 | 83 | 1006.8 | |
| 20260507202414 | 25 | 0.0 | 0.0 | 0.00 | 0.00 | 0.00 | 79 | 1006.7 | |
| 20260507201419 | 26 | 0.0 | 0.0 | 0.00 | 0.00 | 0.00 | 76 | 1006.6 | |
| 20260507200425 | 26 | 0.0 | 0.0 | 0.00 | 0.00 | 0.00 | 74 | 1006.5 | |
| 20260507193439 | 26 | 0.0 | 0.0 | 0.00 | 0.00 | 0.00 | 74 | 1006.8 | |
| 20260507192508 | 27 | 0.0 | 0.0 | 0.00 | 0.00 | 0.00 | 72 | 1006.8 | |
| 20260507191450 | 27 | 0.0 | 0.0 | 0.00 | 0.00 | 0.00 | 69 | 1006.8 | |
| 20260507185501 | 28 | 0.0 | 0.0 | 0.00 | 0.00 | 0.00 | 67 | 1007.0 | |
| 20260507184505 | 28 | 0.0 | 0.0 | 0.00 | 0.00 | 0.00 | 66 | 1007.0 | |
| 20260507183509 | 29 | 0.0 | 0.0 | 0.00 | 0.00 | 0.00 | 61 | 1007.0 | |
| 20260507182515 | 31 | 0.0 | 0.0 | 0.00 | 0.00 | 0.00 | 56 | 1007.2 | |
| 20260507181520 | 30 | 0.0 | 0.0 | 0.00 | 0.00 | 0.00 | 59 | 1007.4 | |
| 20260507180525 | 30 | 0.0 | 0.0 | 0.00 | 0.00 | 0.00 | 57 | 1007.5 | |
| 20260507175529 | 30 | 0.0 | 0.0 | 0.00 | 0.00 | 0.00 | 59 | 1007.5 | |
| 20260507174537 | 30 | 0.0 | 0.0 | 0.00 | 0.00 | 0.00 | 59 | 1007.6 | |
| 20260507173454 | 30 | 0.0 | 0.0 | 0.00 | 0.00 | 0.00 | 57 | 1007.6 | |
| 20260507172500 | 30 | 0.0 | 0.0 | 0.00 | 0.00 | 0.00 | 57 | 1007.8 | |
| 20260507171505 | 30 | 0.0 | 0.0 | 0.00 | 0.00 | 0.00 | 59 | 1008.0 | |
| 20260507170510 | 30 | 0.0 | 0.0 | 0.00 | 0.00 | 0.00 | 58 | 1008.2 | |
| 20260507165514 | 30 | 0.0 | 0.0 | 0.00 | 0.00 | 0.00 | 58 | 1008.4 | |
| 20260507164523 | 30 | 0.0 | 0.0 | 0.00 | 0.00 | 0.00 | 58 | 1008.6 | |
| 20260507163525 | 30 | 0.0 | 0.0 | 0.00 | 0.00 | 0.00 | 57 | 1008.8 | |
| 20260507162530 | 30 | 0.0 | 0.0 | 0.00 | 0.00 | 0.00 | 58 | 1009.0 | |
| 20260507160450 | 30 | 0.0 | 0.0 | 0.00 | 0.00 | 0.00 | 56 | 1009.5 | |
| 20260507155455 | 30 | 0.0 | 0.0 | 0.00 | 0.00 | 0.00 | 56 | 1009.8 | |
| 20260507154521 | 30 | 0.0 | 0.0 | 0.00 | 0.00 | 0.00 | 56 | 1010.1 | |
| 20260507153504 | 30 | 0.0 | 0.0 | 0.00 | 0.00 | 0.00 | 57 | 1010.4 | |
| 20260507152510 | 27 | 0.0 | 0.0 | 0.00 | 0.00 | 0.00 | 64 | 1010.7 | |
| 20260507151515 | 27 | 0.0 | 0.0 | 0.00 | 0.00 | 0.00 | 66 | 1011.1 | |
| 20260507150522 | 26 | 0.0 | 0.0 | 0.00 | 0.00 | 0.00 | 69 | 1011.4 | |
| 20260507145526 | 26 | 0.0 | 0.0 | 0.00 | 0.00 | 0.00 | 70 | 1011.6 | |
| 20260507144530 | 27 | 0.0 | 0.0 | 0.00 | 0.00 | 0.00 | 68 | 1011.8 | |
| 20260507142945 | 27 | 0.0 | 0.0 | 0.00 | 0.00 | 0.00 | 67 | 1012.2 | |
| 20260507141950 | 26 | 0.0 | 0.0 | 0.00 | 0.00 | 0.00 | 69 | 1012.4 | |
| 20260507140954 | 26 | 0.0 | 0.0 | 0.00 | 0.00 | 0.00 | 71 | 1012.6 | |
| 20260507140000 | 25 | 0.0 | 0.0 | 0.00 | 0.00 | 0.00 | 74 | 1012.7 | |
| 20260507135005 | 23 | 0.0 | 0.0 | 0.00 | 0.00 | 0.00 | 81 | 1012.9 | |
| 20260507134010 | 23 | 0.0 | 0.0 | 0.00 | 0.00 | 0.00 | 80 | 1013.1 | |
| 20260507133014 | 23 | 0.0 | 0.0 | 0.00 | 0.00 | 0.00 | 78 | 1013.2 | |
| 20260507132020 | 24 | 0.0 | 0.0 | 0.00 | 0.00 | 0.00 | 76 | 1013.3 | |
| 20260507131025 | 25 | 0.0 | 0.0 | 0.00 | 0.00 | 0.00 | 75 | 1013.3 | |
| 20260507130031 | 25 | 0.0 | 0.0 | 0.00 | 0.00 | 0.00 | 76 | 1013.4 | |
| 20260507124338 | 24 | 0.0 | 0.0 | 0.00 | 0.00 | 0.00 | 77 | 1013.6 | |
| 20260507123344 | 23 | 0.0 | 0.0 | 0.00 | 0.00 | 0.00 | 79 | 1013.6 | |
| 20260507122349 | 22 | 0.0 | 0.0 | 0.00 | 0.00 | 0.00 | 83 | 1013.6 | |
| 20260507121354 | 22 | 0.0 | 0.0 | 0.00 | 0.00 | 0.00 | 84 | 1013.7 | |
| 20260507120358 | 22 | 0.0 | 0.0 | 0.00 | 0.00 | 0.00 | 85 | 1013.7 | |
| 20260507115403 | 22 | 0.0 | 0.0 | 0.00 | 0.00 | 0.00 | 86 | 1013.7 | |
| 20260507114409 | 22 | 0.0 | 0.0 | 0.00 | 0.00 | 0.00 | 87 | 1013.5 | |
| 20260507113414 | 22 | 0.0 | 0.0 | 0.00 | 0.00 | 0.00 | 87 | 1013.5 | |
| 20260507112453 | 22 | 0.0 | 0.0 | 0.00 | 0.00 | 0.00 | 89 | 1013.6 | |
| 20260507111423 | 22 | 0.0 | 0.0 | 0.00 | 0.00 | 0.00 | 91 | 1013.6 | |
| 20260507110429 | 21 | 0.0 | 0.0 | 0.00 | 0.00 | 0.00 | 92 | 1013.6 | |
| 20260507105434 | 21 | 0.0 | 0.0 | 0.00 | 0.00 | 0.00 | 94 | 1013.6 | |
| 20260507104440 | 21 | 0.0 | 0.0 | 0.00 | 0.00 | 0.00 | 96 | 1013.5 | |
| 20260507103444 | 21 | 0.0 | 0.0 | 0.00 | 0.00 | 0.00 | 96 | 1013.4 | |
| 20260507102448 | 21 | 0.0 | 0.0 | 0.00 | 0.00 | 0.00 | 96 | 1013.4 | |
| 20260507101454 | 21 | 0.0 | 0.0 | 0.00 | 0.00 | 0.00 | 96 | 1013.5 | |
| 20260507100500 | 21 | 0.0 | 0.0 | 0.00 | 0.00 | 0.00 | 97 | 1013.4 | |
| 20260507095504 | 21 | 0.0 | 0.0 | 0.00 | 0.00 | 0.00 | 99 | 1013.3 | |
| 20260507094509 | 21 | 0.0 | 0.0 | 0.00 | 0.00 | 0.00 | 99 | 1013.3 | |
| 20260507093514 | 21 | 0.0 | 0.0 | 0.00 | 0.00 | 0.00 | 99 | 1013.3 | |
| 20260507092519 | 21 | 0.0 | 0.0 | 0.00 | 0.00 | 0.00 | 100 | 1013.1 | |
| 20260507091524 | 21 | 0.0 | 0.0 | 0.00 | 0.00 | 0.00 | 100 | 1013.1 | |
| 20260507090529 | 21 | 0.0 | 0.0 | 0.00 | 0.00 | 0.00 | 99 | 1013.0 | |
| 20260507085020 | 21 | 0.0 | 0.0 | 0.00 | 0.00 | 0.00 | 99 | 1012.9 | |
| 20260507084027 | 21 | 0.0 | 0.0 | 0.00 | 0.00 | 0.00 | 98 | 1012.8 | |
| 20260507083029 | 21 | 0.0 | 0.0 | 0.00 | 0.00 | 0.00 | 98 | 1012.8 | |
| 20260507081525 | 21 | 0.0 | 0.0 | 0.00 | 0.00 | 0.00 | 99 | 1012.7 | |
| 20260507080529 | 21 | 0.0 | 0.0 | 0.00 | 0.00 | 0.00 | 100 | 1012.8 | |
| 20260507074553 | 21 | 0.0 | 0.0 | 0.00 | 0.00 | 0.00 | 100 | 1013.0 | |
| 20260507073558 | 22 | 0.0 | 0.0 | 0.00 | 0.00 | 0.00 | 100 | 1013.0 | |
| 20260507072602 | 22 | 0.0 | 0.0 | 0.00 | 0.00 | 0.00 | 99 | 1013.1 | |
| 20260507071608 | 22 | 0.0 | 0.0 | 0.00 | 0.00 | 0.00 | 97 | 1013.1 | |
| 20260507055036 | 22 | 0.0 | 0.0 | 0.00 | 0.00 | 0.00 | 100 | 1014.0 | |
| 20260507054041 | 22 | 0.0 | 0.0 | 0.00 | 0.00 | 0.00 | 100 | 1014.2 | |
| 20260507053048 | 22 | 0.0 | 0.0 | 0.00 | 0.00 | 0.00 | 100 | 1014.3 | |
| 20260507052051 | 22 | 0.0 | 0.0 | 0.00 | 0.00 | 0.00 | 100 | 1014.5 | |
| 20260507051056 | 22 | 0.0 | 0.0 | 0.00 | 0.00 | 0.00 | 100 | 1014.6 | |
| 20260507045106 | 22 | 0.0 | 0.0 | 0.00 | 0.00 | 0.00 | 100 | 1014.9 | |
| 20260507044111 | 22 | 0.0 | 0.0 | 0.00 | 0.00 | 0.00 | 100 | 1014.9 | |
| 20260507043117 | 22 | 0.0 | 0.0 | 0.00 | 0.00 | 0.00 | 100 | 1014.9 | |
| 20260507042121 | 22 | 0.0 | 0.0 | 0.00 | 0.00 | 0.00 | 100 | 1015.0 | |
| 20260507041126 | 22 | 0.0 | 0.0 | 0.00 | 0.00 | 0.00 | 100 | 1015.0 | |
| 20260507040140 | 22 | 0.0 | 0.0 | 0.00 | 0.00 | 0.00 | 100 | 1015.1 | |
| 20260507035136 | 22 | 0.0 | 0.0 | 0.00 | 0.00 | 0.00 | 100 | 1015.2 | |
| 20260507034141 | 22 | 0.0 | 0.0 | 0.00 | 0.00 | 0.00 | 100 | 1015.2 | |
| 20260507033146 | 22 | 0.0 | 0.0 | 0.00 | 0.00 | 0.00 | 100 | 1015.2 | |
| 20260507032151 | 22 | 0.0 | 0.0 | 0.00 | 0.00 | 0.00 | 100 | 1015.2 | |
| 20260507031157 | 22 | 0.0 | 0.0 | 0.00 | 0.00 | 0.00 | 100 | 1015.3 | |
| 20260507030201 | 22 | 0.0 | 0.0 | 0.00 | 0.00 | 0.00 | 100 | 1015.4 | |
| 20260507025206 | 22 | 0.0 | 0.0 | 0.00 | 0.00 | 0.00 | 100 | 1015.5 | |
| 20260507024211 | 22 | 0.0 | 0.0 | 0.00 | 0.00 | 0.00 | 100 | 1015.7 | |
| 20260507023216 | 22 | 0.0 | 0.0 | 0.00 | 0.00 | 0.00 | 100 | 1015.7 | |
| 20260507022222 | 22 | 0.0 | 0.0 | 0.00 | 0.00 | 0.00 | 100 | 1015.7 | |
| 20260507020232 | 22 | 0.0 | 0.0 | 0.00 | 0.00 | 0.00 | 100 | 1015.9 | |
| 20260507015238 | 22 | 0.0 | 0.0 | 0.00 | 0.00 | 0.00 | 100 | 1015.9 | |
| 20260507014243 | 22 | 0.0 | 0.0 | 0.00 | 0.00 | 0.00 | 100 | 1015.9 | |
| 20260507013246 | 22 | 0.0 | 0.0 | 0.00 | 0.00 | 0.00 | 100 | 1015.9 | |
| 20260507012251 | 22 | 0.0 | 0.0 | 0.00 | 0.00 | 0.00 | 100 | 1015.9 | |
| 20260507011256 | 22 | 0.0 | 0.0 | 0.00 | 0.00 | 0.00 | 100 | 1016.0 | |
| 20260507010301 | 22 | 0.0 | 0.0 | 0.00 | 0.00 | 0.00 | 100 | 1016.0 | |
| 20260507005306 | 22 | 0.0 | 0.0 | 0.00 | 0.00 | 0.00 | 100 | 1016.1 | |
| 20260507004312 | 22 | 0.0 | 0.0 | 0.00 | 0.00 | 0.00 | 100 | 1016.3 | |
| 20260507003315 | 22 | 0.0 | 0.0 | 0.00 | 0.00 | 0.00 | 100 | 1016.4 | |
| 20260507002330 | 22 | 0.0 | 0.0 | 0.00 | 0.00 | 0.00 | 100 | 1016.5 | |
| 20260507001329 | 22 | 0.0 | 0.0 | 0.00 | 0.00 | 0.00 | 100 | 1016.5 | |
| 20260507000331 | 22 | 0.0 | 0.0 | 0.00 | 0.00 | 0.00 | 99 | 1016.6 | |
| 20260506235337 | 22 | 0.0 | 0.0 | 0.00 | 0.00 | 0.00 | 99 | 1016.6 | |
| 20260506234341 | 22 | 0.0 | 0.0 | 0.00 | 0.00 | 0.00 | 98 | 1016.5 | |
| 20260506233346 | 22 | 0.0 | 0.0 | 0.00 | 0.00 | 0.00 | 97 | 1016.4 | |
| 20260506232351 | 22 | 0.0 | 0.0 | 0.00 | 0.00 | 0.00 | 96 | 1016.2 | |
| 20260506231356 | 22 | 0.0 | 0.0 | 0.00 | 0.00 | 0.00 | 96 | 1016.1 | |
| 20260506230401 | 22 | 0.0 | 0.0 | 0.00 | 0.00 | 0.00 | 95 | 1016.0 | |
| 20260506225406 | 23 | 0.0 | 0.0 | 0.00 | 0.00 | 0.00 | 95 | 1016.0 | |
| 20260506224427 | 23 | 0.0 | 0.0 | 0.00 | 0.00 | 0.00 | 95 | 1015.9 | |
| 20260506223418 | 23 | 0.0 | 0.0 | 0.00 | 0.00 | 0.00 | 95 | 1015.8 | |
| 20260506222421 | 23 | 0.0 | 0.0 | 0.00 | 0.00 | 0.00 | 94 | 1015.8 | |
| 20260506221428 | 23 | 0.0 | 0.0 | 0.00 | 0.00 | 0.00 | 94 | 1015.7 | |
| 20260506220434 | 23 | 0.0 | 0.0 | 0.00 | 0.00 | 0.00 | 94 | 1015.7 | |
| 20260506214441 | 22 | 0.0 | 0.0 | 0.00 | 0.00 | 0.00 | 95 | 1015.5 | |
| 20260506213446 | 22 | 0.0 | 0.0 | 0.00 | 0.00 | 0.00 | 95 | 1015.5 | |
| 20260506212451 | 22 | 0.0 | 0.0 | 0.00 | 0.00 | 0.00 | 95 | 1015.4 | |
| 20260506211456 | 22 | 0.0 | 0.0 | 0.00 | 0.00 | 0.00 | 95 | 1015.4 |